User: anonymous   Login
Location: Bishop�s Knoyle
(51.0728°N, 2.1714°W)
Time: 22:25:01
(UTC+00:00)
Language:

Cosmos 1536 Rocket - Orbit

View from above orbital plane
View from above orbital plane
View from above satellite
View from above satellite

Ground track
Ground track

The orbit data is extracted from the following two-line orbital elements,

1 14700U 84013B   20336.78166078  .00000146  00000-0  14780-4 0  9990
2 14700  82.5392  56.2542 0021113 120.1071  24.7958 14.83307091967224
Epoch (UTC): 01 December 2020 18:45:35
Eccentricity: 0.0021113
inclination: 82.5392°
perigee height: 604 km
apogee height: 633 km
right ascension of ascending node: 56.2542°
argument of perigee: 120.1071°
revolutions per day: 14.83307091
mean anomaly at epoch: 24.7958°
orbit number at epoch: 96722

The dashed part of the orbit path shows where the satellite is in the earth's shadow,  

DLR